Location: Eisengraben
(48.5167°N, 15.4500°E)
Time: 07:37:23
(UTC+00:00)

Daily predictions for brighter satellites

Satellite Brightness Start Highest point End
(mag) Time Altitude Azimuth Time Altitude Azimuth Time Altitude Azimuth
Cosmos 372 Rocket 4.0 16:06:41 10° SSW 16:11:49 86° ESE 16:17:02 10° NNE
Cosmos 1626 Rocket 3.8 16:07:47 10° SSE 16:11:56 48° E 16:16:06 10° NNE
CZ-4C R/B 3.0 16:05:02 10° NW 16:12:08 86° NE 16:20:22 10° SE
Meteor 1-24 Rocket 3.6 16:07:16 10° S 16:12:31 70° E 16:17:57 10° NNE
SL-16 R/B 3.3 16:08:21 10° N 16:12:53 24° NE 16:17:24 10° E
Cosmos 1455 3.9 16:11:16 10° NE 16:13:11 13° ENE 16:15:05 10° E
Nadezhda 3 Rocket 4.1 16:07:19 10° N 16:13:30 56° ENE 16:19:42 10° SSE
Cosmos 1048 Rocket 4.0 16:09:06 10° NNW 16:14:17 90° N 16:19:24 10° SSE
KORONAS-FOTON 4.2 16:10:35 10° SSW 16:14:21 65° WNW 16:18:07 10° N
Cosmos 1269 Rocket 4.3 16:11:49 10° NNW 16:16:56 47° ENE 16:22:00 10° SE
CZ-4B R/B 3.5 16:15:19 10° NNW 16:17:50 24° WNW 16:20:21 10° WSW
ERBS 3.9 16:17:18 10° S 16:19:52 21° SE 16:22:26 10° E
Cosmos 1271 Rocket 2.6 16:16:26 10° S 16:20:09 81° E 16:23:57 10° NNE
Okean O Rocket 3.3 16:16:10 10° SSW 16:20:19 39° W 16:24:32 10° NNW
BREEZE-M DEB (TANK) 4.4 16:19:29 10° S 16:20:37 12° SE 16:21:43 10° ESE
CORIOLIS 4.1 16:15:27 10° SSE 16:20:49 78° ENE 16:26:12 10° NNW
Cosmos 2219 3.9 16:16:01 10° SSE 16:20:59 34° ESE 16:26:01 10° NE
Okean-O 2.9 16:17:07 10° SE 16:21:21 47° ENE 16:25:38 10° N
Starlink AS 2.9 16:20:36 10° WSW 16:23:31 64° NNW 16:26:19 11° ENE
Starlink AQ 2.9 16:20:43 10° WSW 16:23:39 64° NNW 16:26:30 11° ENE
Starlink BA 2.9 16:20:50 10° WSW 16:23:45 64° NNW 16:26:33 11° ENE
Starlink AU 2.9 16:21:03 10° WSW 16:23:58 64° NNW 16:26:45 11° ENE
Starlink AT 2.9 16:21:18 10° WSW 16:24:13 63° NNW 16:27:00 11° ENE
Starlink BB 2.9 16:21:31 10° WSW 16:24:25 63° NNW 16:27:12 11° ENE
Starlink BC 2.9 16:21:45 10° WSW 16:24:39 63° NNW 16:27:25 11° ENE
Starlink BK 2.9 16:21:58 10° WSW 16:24:52 63° NNW 16:27:38 11° ENE
Starlink AY 2.9 16:22:12 10° WSW 16:25:06 63° NNW 16:27:52 11° ENE
Starlink AW 2.9 16:22:25 10° WSW 16:25:19 62° NNW 16:28:04 11° ENE
Starlink BJ 2.9 16:22:38 10° WSW 16:25:33 62° NNW 16:28:17 11° ENE
Starlink AV 2.9 16:22:51 10° WSW 16:25:45 62° NNW 16:28:29 11° ENE
Feng Yun 1-1 Rocket 4.4 16:20:04 10° SSE 16:25:48 89° WSW 16:31:43 10° NNW
Cosmos 1607 4.0 16:19:41 10° SW 16:25:49 88° SE 16:32:03 10° NE
Starlink BD 2.9 16:23:06 10° WSW 16:26:00 62° NNW 16:28:43 11° ENE
Starlink BE 2.9 16:23:20 10° WSW 16:26:14 62° NNW 16:28:59 11° ENE
Starlink BM 2.9 16:23:32 10° WSW 16:26:27 61° NNW 16:29:09 12° ENE
Starlink AX 2.9 16:23:46 10° WSW 16:26:40 61° NNW 16:29:22 12° ENE
Cosmos 1340 Rocket 2.8 16:22:48 10° N 16:26:44 57° ENE 16:30:39 10° SSE
Starlink BH 2.9 16:24:00 10° WSW 16:26:54 61° NNW 16:29:35 12° ENE
Starlink AZ 2.9 16:24:13 10° WSW 16:27:07 61° NNW 16:29:47 12° ENE
Starlink BG 3.0 16:24:28 10° WSW 16:27:21 61° NNW 16:30:02 12° ENE
Starlink BF 3.0 16:24:41 10° WSW 16:27:34 60° NNW 16:30:13 12° ENE
Starlink BL 3.0 16:24:52 10° WSW 16:27:47 61° NNW 16:30:28 12° ENE
Starlink AH 3.0 16:25:07 10° WSW 16:28:01 60° NNW 16:30:39 12° ENE
Starlink AC 3.0 16:25:21 10° WSW 16:28:15 60° NNW 16:30:52 12° ENE
Starlink X 3.0 16:25:34 10° WSW 16:28:28 60° NNW 16:31:05 12° ENE
Starlink AE 3.0 16:25:43 10° WSW 16:28:38 60° NNW 16:31:18 12° ENE
Starlink Z 3.0 16:26:00 10° WSW 16:28:54 59° NNW 16:31:30 12° ENE
Starlink AK 3.0 16:26:15 10° WSW 16:29:09 59° NNW 16:31:44 12° ENE
Starlink AL 3.0 16:26:29 10° WSW 16:29:22 59° NNW 16:31:58 12° ENE
SJ 16-02 3.7 16:26:08 10° WSW 16:29:24 20° NW 16:32:41 10° N
Starlink AD 3.0 16:26:39 10° WSW 16:29:32 59° NNW 16:32:07 12° ENE
SL-14 R/B 3.2 16:26:02 10° S 16:30:01 76° E 16:33:59 10° NNE
Starlink Y 3.0 16:27:08 10° WSW 16:30:02 59° NNW 16:32:35 13° ENE
Starlink AG 3.0 16:27:22 10° WSW 16:30:15 58° NNW 16:32:48 13° ENE
Starlink W 3.0 16:27:33 10° WSW 16:30:28 58° NNW 16:33:03 13° ENE
Starlink AJ 3.0 16:27:48 10° WSW 16:30:42 58° NNW 16:33:14 13° ENE
Starlink AM 3.0 16:28:19 10° W 16:31:12 58° NNW 16:33:43 13° ENE
Meteor 2-5 Rocket 4.2 16:25:52 10° SSW 16:31:20 63° WNW 16:36:56 10° N
Starlink AP 3.0 16:28:28 10° W 16:31:23 58° NNW 16:33:53 13° ENE
Starlink AA 3.0 16:28:41 10° W 16:31:35 57° NNW 16:34:05 13° ENE
Starlink AF 3.0 16:28:58 10° W 16:31:51 57° NNW 16:34:21 13° ENE
USA 267 3.4 16:25:19 10° NE 16:31:52 76° NNW 16:38:23 10° WSW
Starlink AB 3.0 16:29:10 10° W 16:32:04 57° NNW 16:34:32 13° ENE
Starlink AN 3.0 16:29:22 10° W 16:32:16 57° NNW 16:34:44 13° ENE
Cosmos 2297 Rocket 3.0 16:28:23 10° SSE 16:33:13 30° ESE 16:38:06 10° NE
Timation 2 Rocket 4.0 16:27:12 10° SSW 16:33:19 87° ESE 16:39:44 10° NNE
Cosmos 1980 3.7 16:28:04 10° NNW 16:33:47 68° ENE 16:39:27 10° SE
FengYun 1-2 T 4.4 16:29:27 10° SE 16:34:56 56° ENE 16:40:29 10° N
ATLAS 5 CENTAUR R/B 3.9 16:33:31 10° NNW 16:36:38 24° NNE 16:43:09 11° E
Cosmos 2341 Rocket 4.3 16:34:57 10° SSE 16:41:00 47° E 16:47:01 10° NNE
H-2A R/B 3.8 16:37:42 10° S 16:41:26 50° W 16:45:15 10° NNW
Cosmos 2219 Rocket 3.4 16:36:06 10° NW 16:41:34 48° WSW 16:46:57 10° S
Cosmos 494 Rocket 4.0 16:38:32 10° NNW 16:43:42 88° WSW 16:48:49 10° SSE
Cosmos 2227 Rocket 2.9 16:40:37 10° S 16:45:39 34° ESE 16:50:27 11° NE
Starlink T 3.3 16:44:44 10° W 16:47:40 48° NNW 16:49:36 19° NE
Starlink N 3.3 16:46:12 10° W 16:49:08 48° NNW 16:51:01 19° NE
SKYMED 2 3.9 16:45:07 10° NNE 16:49:18 45° E 16:53:28 10° S
Starlink Q 3.4 16:47:58 10° W 16:50:53 47° NNW 16:52:42 20° NE
Ariane Rocket 4.1 16:47:25 10° ESE 16:51:14 22° ENE 16:55:04 10° N
NOSS 2-1 (C) 4.3 16:46:10 10° NW 16:51:14 69° NE 16:58:22 10° SE
COSMOS 2428 4.2 16:46:49 10° NW 16:52:12 42° WSW 16:57:33 10° S
Starlink P 3.4 16:49:31 10° W 16:52:27 46° NNW 16:54:12 20° NE
Starlink U 3.4 16:51:04 10° W 16:54:00 46° NNW 16:55:41 21° NE
Shenzhou-11 Module 4.4 16:54:22 10° SSE 16:54:44 10° SSE 16:55:05 10° SSE
NOSS 2-1 (D) 4.3 16:49:57 10° NW 16:55:05 72° NE 17:02:16 10° SE
Meteor 2-1 Rocket 4.2 16:49:57 10° NNW 16:55:29 88° E 17:01:02 10° S
Starlink B 3.4 16:52:39 10° W 16:55:35 45° NNW 16:57:12 22° NE
Starlink AR 3.3 16:53:42 10° W 16:56:08 37° NNW 16:57:13 23° NE
Cosmos 1939 Rocket 3.4 16:55:41 10° SE 16:59:13 34° ENE 17:02:50 10° N
Cosmos 1812 Rocket 4.0 16:54:57 10° NNW 16:59:24 66° W 17:03:50 10° S
Meteor 2-10 Rocket 3.7 16:55:57 10° N 17:01:10 47° ENE 17:06:08 10° SSE
Starlink D 3.5 17:00:53 10° W 17:03:49 42° NNW 17:05:07 26° NE
Starlink S 3.6 17:02:32 10° W 17:05:27 42° NNW 17:06:42 26° NE
Cosmos-2242 3.0 17:02:35 10° N 17:06:54 61° ENE 17:11:08 10° SSE
Starlink C 3.6 17:04:08 10° W 17:07:03 41° NNW 17:08:14 27° NE
USA 234 4.5 17:01:35 10° SSE 17:07:44 43° SW 17:13:55 10° WNW
Starlink E 3.6 17:05:49 10° W 17:08:43 41° NNW 17:09:51 28° NE
Cosmos 1703 4.1 17:05:38 10° SSE 17:09:05 29° E 17:10:11 25° ENE
YAOGAN 1 2.5 17:04:58 10° SSE 17:09:13 60° ENE 17:13:31 10° N
Starlink J 3.6 17:07:29 10° W 17:10:23 40° NNW 17:11:26 29° NE
Cosmos 2218 Rocket 4.2 17:05:04 10° SSE 17:11:06 48° E 17:17:11 10° NNE
H-2A R/B 3.4 17:12:07 18° NE 17:12:07 18° NE 17:14:53 10° NNE
Cosmos 1339 Rocket 4.4 17:05:28 10° N 17:11:29 59° ENE 17:17:30 10° SSE
Starlink V 3.6 17:09:07 10° W 17:12:02 40° NNW 17:13:01 30° NNE
Cosmos 44 4.0 17:08:29 10° S 17:12:29 30° ESE 17:13:43 26° E
Starlink H 3.7 17:10:49 10° W 17:13:43 39° NNW 17:14:38 30° NNE
Starlink F 3.7 17:12:30 10° W 17:15:24 39° NNW 17:16:15 31° NNE
Cosmos 2251 Rocket 3.8 17:10:48 10° NNW 17:15:53 44° ENE 17:20:58 10° SE
Starlink G 3.7 17:14:11 10° W 17:17:05 39° N 17:17:52 32° NNE
Starlink L 3.7 17:15:51 10° W 17:18:45 38° N 17:19:28 32° NNE
CSL-04 Debris 4.1 17:14:06 10° SSE 17:19:28 74° ENE 17:24:53 10° NNW
Starlink A 3.7 17:17:33 10° W 17:20:27 38° N 17:21:05 33° NNE
Starlink R 3.7 17:19:15 10° W 17:22:09 38° N 17:22:44 34° NNE
Starlink K 3.7 17:20:56 10° W 17:23:49 37° N 17:24:20 34° NNE
USA 32 4.1 17:19:11 10° S 17:24:25 80° W 17:29:41 10° N
ATLAS CENTAUR R/B 2.0 17:21:05 10° NNW 17:24:52 33° NE 17:25:05 32° NE
Starlink M 3.7 17:22:36 10° W 17:25:29 37° N 17:25:56 35° NNE
ISS -2.8 17:25:07 10° SSW 17:28:11 33° SE 17:28:18 33° SE
CZ-4 R/B 1.8 17:26:34 10° S 17:30:35 65° WSW 17:34:43 10° NNW
Cosmos 1959 Rocket 4.4 17:26:44 10° S 17:32:50 66° E 17:38:54 10° NNE
Cosmos 2237 Rocket 3.2 17:29:49 10° NW 17:35:13 47° WSW 17:40:33 10° S
ATLAS CENTAUR R/B 4.5 17:30:18 10° W 17:36:47 59° N 17:48:22 22° ENE
COSMO-SKYMED 1 3.1 17:33:09 10° N 17:37:27 61° WNW 17:41:43 10° SSW
CZ-2D R/B 3.1 17:35:09 10° SSE 17:38:58 89° WSW 17:42:51 10° NNW
Cosmos 1953 Rocket 3.5 17:35:29 10° S 17:39:58 85° ESE 17:44:25 10° N
CZ-2C R/B 4.4 17:42:25 25° NE 17:42:25 25° NE 17:45:41 10° N
Cosmos 1842 Rocket 4.2 17:38:30 10° N 17:41:42 36° NE 17:41:42 36° NE
ADEOS Rocket 3.4 17:37:32 10° NNE 17:43:55 51° E 17:50:55 10° S
Cosmos 1758 Rocket 4.3 17:40:44 10° SSW 17:44:56 52° WNW 17:49:11 10° N
Cosmos 2366 rocket 3.9 17:38:57 10° S 17:45:09 78° E 17:51:27 10° NNE
CSL-04 Rocket 3.9 17:39:53 10° S 17:45:22 73° WSW 17:50:57 10° NNW
Cosmos 1932 4.4 17:40:08 10° SSW 17:46:31 85° SE 17:50:20 27° NE
Cosmos 1455 2.7 17:45:27 10° NNW 17:49:13 58° W 17:52:56 10° S
Meteor 1-27 4.2 17:43:45 10° N 17:49:14 55° ENE 17:53:15 18° SSE
Cosmos 1356 Rocket 3.5 17:46:15 10° N 17:49:34 53° NNE 17:49:34 53° NNE
ATLAS 5 CENTAUR R/B 3.9 17:48:39 10° WNW 17:51:52 18° NNW 17:53:54 15° NNE
Meteor 1-11 4.1 17:47:42 10° S 17:53:12 59° E 17:56:19 26° NNE
ERBS 2.9 17:52:40 10° WSW 17:55:37 54° WNW 17:55:37 54° WNW
SL-16 R/B 2.2 17:51:58 10° NNW 17:57:41 79° WSW 18:03:19 10° SSE
Cosmos 1328 4.2 18:00:57 10° SSW 18:04:57 64° WNW 18:06:16 39° NNW
Cosmos 2219 4.1 17:59:37 10° SW 18:05:00 45° NW 18:09:13 16° NNE
Meteor 2-12 Rocket 4.3 17:59:50 10° S 18:05:47 64° E 18:11:47 10° NNE
IRS-1A Rocket 4.2 18:00:20 10° SSE 18:06:06 79° ENE 18:11:47 10° NNW
Cosmos 2082 3.5 18:01:30 10° SSW 18:07:06 85° ESE 18:08:58 45° NNE
Cosmos 1727 Rocket 4.0 18:03:44 10° N 18:09:57 81° W 18:16:07 10° S
Cosmos 1603 4.2 18:04:30 10° NNW 18:09:08 42° NNE 18:09:08 42° NNE
USA 267 3.9 18:12:10 33° NE 18:14:27 45° N 18:20:35 10° W
Cosmos 2297 Rocket 2.9 18:11:32 10° SW 18:17:01 51° NW 18:20:18 24° N
MOS 1 4.1 18:15:29 49° SE 18:17:04 76° ENE 18:22:48 10° NNW
Cosmos 2227 Rocket 3.1 18:24:10 10° SW 18:29:35 45° NW 18:32:18 27° N
Ariane Rocket 3.4 18:24:45 10° S 18:29:46 62° WSW 18:34:50 10° NNW
ARGOS 4.1 18:40:06 37° N 18:40:06 37° N 18:43:18 10° NNW
Cosmos 1943 4.2 18:39:29 10° NNW 18:42:48 35° N 18:42:48 35° N
H-2A R/B 3.4 18:52:43 31° NNW 18:52:43 31° NNW 18:55:21 10° NNW
Cosmos 1821 Rocket 4.2 18:47:33 10° SSW 19:01:34 - N 18:52:57 65° SSW
ATLAS CENTAUR R/B 4.0 19:00:09 10° NW 19:01:19 17° WNW 19:01:19 17° WNW
ADEOS Rocket 4.5 19:23:25 10° N 19:29:16 38° WNW 19:35:40 10° SW
